DW4070 Weather Reports


Display with metric or nautical units.
time (UTC)temp
F
wind
direction
speed
MPH
gust
MPH
rain 1hr
in
rain 24hr
in
rain mn
in
humidity
%
barometer
mb
20260505061525 46 267 0.0 0.0 0.00 0.00 0.00 91 1012.1
20260505060028 47 267 0.0 0.0 0.00 0.00 0.00 91 1012.0
20260505054521 47 267 0.0 0.0 0.00 0.00 0.00 91 1012.0
20260505053021 47 267 0.0 0.0 0.00 0.00 0.00 90 1012.2
20260505051519 47 267 0.0 0.0 0.00 0.00 0.00 90 1012.2
20260505041509 48 267 0.0 0.0 0.00 0.00 0.00 88 1012.6
20260505040007 49 267 0.0 0.0 0.00 0.00 0.00 88 1012.5
20260505034507 49 267 0.0 0.0 0.00 0.00 0.00 87 1012.5
20260505033006 49 267 0.0 0.0 0.00 0.00 0.00 86 1012.5
20260505031509 50 267 0.0 0.0 0.00 0.00 0.00 85 1012.6
20260505030106 50 267 0.0 0.0 0.00 0.00 0.00 84 1012.5
20260505024505 51 267 0.0 0.0 0.00 0.00 0.00 82 1012.6
20260505023005 52 267 0.0 0.0 0.00 0.00 0.00 81 1012.6
20260505021503 52 267 0.0 0.0 0.00 0.00 0.00 79 1012.7
20260505020003 53 267 0.0 0.0 0.00 0.00 0.00 78 1012.6
20260505014504 53 267 0.0 0.0 0.00 0.00 0.00 77 1012.6
20260505013002 54 267 0.0 0.0 0.00 0.00 0.00 76 1012.4
20260505011502 55 267 0.0 0.0 0.00 0.00 0.00 74 1012.4
20260505010000 56 267 0.0 0.0 0.00 0.00 0.00 71 1012.1
20260505004612 57 267 0.0 0.0 0.00 0.00 0.00 68 1011.9
20260505003100 58 267 0.0 2.0 0.00 0.00 0.00 65 1011.6
20260505001629 59 262 0.0 3.0 0.00 0.00 0.00 63 1011.4
20260505001502 59 262 0.0 3.0 0.00 0.00 0.00 62 1011.5
20260505000110 60 281 1.0 4.0 0.00 0.00 0.00 61 1011.3
20260504234601 60 97 0.0 7.0 0.00 0.00 0.00 60 1011.1
20260504233112 61 265 0.0 3.0 0.00 0.00 0.00 57 1010.8
20260504231559 62 266 1.0 8.0 0.00 0.00 0.00 55 1010.7
20260504230059 62 262 1.0 8.0 0.00 0.00 0.00 53 1010.6
20260504224556 63 263 1.0 7.0 0.00 0.00 0.00 52 1010.5
20260504223055 64 167 2.0 9.0 0.00 0.00 0.00 49 1010.6
20260504221554 65 263 0.0 9.0 0.00 0.00 0.00 49 1010.8
20260504220054 65 263 1.0 7.0 0.00 0.00 0.00 50 1010.7
20260504214555 66 270 1.0 6.0 0.00 0.00 0.00 49 1010.7
20260504213053 66 267 2.0 8.0 0.00 0.00 0.00 48 1010.9
20260504211551 67 267 1.0 9.0 0.00 0.00 0.00 48 1010.8
20260504210052 67 281 2.0 9.0 0.00 0.00 0.00 48 1010.8
20260504204553 68 262 2.0 10.0 0.00 0.00 0.00 44 1010.7
20260504203055 69 223 2.0 11.0 0.00 0.00 0.00 38 1010.6
20260504201547 71 271 2.0 6.0 0.00 0.00 0.00 38 1010.6
20260504200046 71 263 1.0 10.0 0.00 0.00 0.00 35 1010.7
20260504194548 72 286 1.0 8.0 0.00 0.00 0.00 35 1010.8
20260504193042 73 269 2.0 15.0 0.00 0.00 0.00 35 1010.9
20260504191549 72 282 1.0 12.0 0.00 0.00 0.00 36 1011.1
20260504190039 72 286 3.0 11.0 0.00 0.00 0.00 35 1011.3
20260504184537 72 284 1.0 8.0 0.00 0.00 0.00 34 1011.4
20260504183034 73 55 2.0 8.0 0.00 0.00 0.00 32 1011.5
20260504181532 72 261 1.0 6.0 0.00 0.00 0.00 36 1011.8
20260504180030 71 315 1.0 8.0 0.00 0.00 0.00 34 1012.1
20260504174526 71 204 1.0 11.0 0.00 0.00 0.00 36 1012.2
20260504173023 70 284 1.0 7.0 0.00 0.00 0.00 36 1012.4
20260504171530 70 282 3.0 9.0 0.00 0.00 0.00 34 1012.5
20260504100104 42 241 0.0 0.0 0.00 0.00 0.00 80 1015.2
20260504090106 41 16 0.0 0.0 0.00 0.00 0.00 86 1014.9
20260504081550 39 336 0.0 0.0 0.00 0.00 0.00 90 1014.6